Location: Muenchen
(48.1800°N, 11.5800°E)
Time: 08:34:48
(UTC+02:00)

Cosmos 1455 - Visible Passes

Search period start: 21 August 2017 00:00
Search period end: 31 August 2017 00:00
Orbit: 501 x 527 km, 82.5° (Epoch: 20 August)

Date Brightness Start Highest point End Pass type
(mag) Time Alt. Az. Time Alt. Az. Time Alt. Az.
21 Aug 2.3 05:12:40 10° S 05:16:26 79° E 05:20:12 10° NNE visible
22 Aug 2.5 04:57:20 10° S 05:01:02 64° E 05:04:47 10° NNE visible
23 Aug 2.9 04:42:01 10° S 04:45:40 52° E 04:49:19 10° NNE visible
24 Aug 3.3 04:27:07 12° SSE 04:30:17 42° E 04:33:52 10° NNE visible
25 Aug 3.6 04:12:22 15° SSE 04:14:56 34° E 04:18:22 10° NNE visible
26 Aug 3.9 03:57:33 18° SE 03:59:34 28° E 04:02:51 10° NNE visible
26 Aug 3.5 05:32:34 12° WSW 05:35:16 23° WNW 05:38:19 10° NNW visible
27 Aug 4.2 03:42:43 18° SE 03:44:14 24° E 03:47:17 10° NE visible
27 Aug 3.3 05:17:43 17° WSW 05:19:49 27° WNW 05:23:05 10° NNW visible
28 Aug 4.4 03:27:50 18° ESE 03:28:53 20° E 03:31:40 10° NE visible
28 Aug 3.0 05:02:51 23° WSW 05:04:22 32° WNW 05:07:48 10° N visible
29 Aug 4.6 03:12:56 16° E 03:13:33 17° E 03:16:00 10° NE visible
29 Aug 2.7 04:47:57 32° WSW 04:48:56 39° WNW 04:52:30 10° N visible
30 Aug 4.8 02:58:00 14° E 02:58:14 14° E 03:00:13 10° NE visible
30 Aug 2.4 04:33:00 45° WSW 04:33:29 48° WNW 04:37:10 10° N visible
